Location: Stony Creek
(40.9500°S, 175.8500°E)
Time: 10:05:49
(UTC+00:00)

SL-16 R/B - Pass Details

Date: 15 May 2026
Orbit: 838 x 849 km, 71.0° (Epoch: 10 June)

Event Time Altitude Azimuth Distance (km) Brightness Sun altitude
Exits shadow 16:20:29 20° 165° (SSE) 1,885 4.1 -33.4°
Drops below altitude 10° 16:22:09 10° 161° (SSE) 2,491 4.8 -33.0°
Sets 16:24:38 0° 158° (SSE) 3,431 5.7 -32.6°
